User: anonymous   Login
Location: Unspecified
(0.0000°N, 0.0000°E)
Time: 20:49:03
(UTC+00:00)
Language:

STARLINK-5193 - Orbit

View from above orbital plane
View from above orbital plane
View from above satellite
View from above satellite

Ground track
Ground track

The orbit is defined by the following mean orbital elements,

1 54095U          26145.56095042 +.00000000 +00000-0 +27588-4 0 00009
2 54095  53.2130 348.7041 0001183  83.1105 277.0022 15.08837118    09
Epoch (UTC): 25 May 2026 13:27:46
Eccentricity: 0.0001183
inclination: 53.2130°
perigee height: 539 km
apogee height: 541 km
right ascension of ascending node: 348.7041°
argument of perigee: 83.1105°
revolutions per day: 15.08837118
mean anomaly at epoch: 277.0022°

The dashed part of the orbit path shows where the satellite is in the earth's shadow,  

DLR